Weather Roundup
Issued by NWS

Home | Current Version | Previous Version | Text Only | Print | Product List | Glossary On
Versions: 1 2 3 4 5 6 7 8 9 10 11 12 13 14 15 16 17 18 19 20 21 22 23 24 25 26 27 28 29 30 31 32 33 34 35 36 37 38 39 40 41 42 43 44 45 46 47 48 49 50
129
NZUS93 KARX 281110
HRRWXR

CURRENT HOURLY OBSERVATIONS ACROSS
MUCH OF THE UPPER MISSISSIPPI VALLEY
NATIONAL WEATHER SERVICE LA CROSSE WI
500 AM CST TUE FEB 28 2017


...SOUTHEAST MINNESOTA...


CITY           SKY/WX    TMP DP  RH WIND       PRES   REMARKS
ROCHESTER      CLOUDY    37  34  89 SE13      29.69F WCI  29
ROCHESTER/MAYO FAIR      40  35  81 SE7       29.70F
WINONA         CLOUDY    37  34  87 S3        29.76S
AUSTIN         CLOUDY    37  34  87 SE10      29.68F WCI  30
ALBERT LEA     PTCLDY    39  36  87 SE12      29.68S WCI  32
DODGE CENTER   NOT AVBL
PRESTON        CLOUDY    38  34  85 SE9       29.71F WCI  32
OWATONNA       CLOUDY    37  34  87 SE9       29.68F WCI  31
FARIBAULT      CLOUDY    34  32  93 CALM      29.70F
$$

...ELSEWHERE IN MINNESOTA...


CITY           SKY/WX    TMP DP  RH WIND       PRES   REMARKS
MINNEAPOLIS    CLOUDY    37  30  75 VRB5      29.72F WCI  33
INTNL FALLS    CLOUDY    20  16  84 NE8       29.89R WCI  10
DULUTH         LGT SNOW  28  27  96 E6        29.79F FOG     WCI  22
RED WING       CLOUDY    39  30  70 E3        29.73F
REDWOOD FALLS  CLOUDY    33  29  85 N6        29.69F WCI  28
MANKATO          N/A     36  32  85 E6        29.68F WCI  31
WORTHINGTON    CLOUDY    32  30  92 N9        29.67R WCI  24
FAIRMONT       PTCLDY    32  29  88 SE5       29.67S WCI  27
$$

...SOUTHWEST WISCONSIN...


CITY           SKY/WX    TMP DP  RH WIND       PRES   REMARKS
LA CROSSE      CLOUDY    43  37  79 SE10      29.76F
PRAIRIE DU CHI FOG       36  35  96 CALM      29.75F VSB 3/4
BOSCOBEL       CLOUDY    40  38  93 NE5       29.77F FOG
LONE ROCK      CLOUDY    41  39  93 E6        29.78F FOG
PLATTEVILLE      N/A     39  39 100 E10       29.75F WCI  32
FORT MC COY    CLOUDY    40  38  95 E6        29.78F
CAMP DOUGLAS   CLOUDY    36  36  99 E5        29.79F WCI  32
MAUSTON-NEW LI CLOUDY    36  35  99 CALM      29.79F FOG
VIROQUA        PTSUNNY   38  37  99 E10       29.75F WCI  30
WIS DELLS      CLOUDY    39  38  97 SE3       29.79F FOG
$$

...ELSEWHERE IN WISCONSIN...


CITY           SKY/WX    TMP DP  RH WIND       PRES   REMARKS
MILWAUKEE      LGT RAIN  42  40  92 SE15      29.87S FOG
MADISON        CLOUDY    43  40  89 SE8       29.80F FOG
GREEN BAY      LGT RAIN  38  38 100 S6        29.87S FOG     WCI  33
EAU CLAIRE     CLOUDY    36  31  82 E6        29.75F WCI  31
BLACK RVR FLS  CLOUDY    36  32  87 CALM      29.77S
MEDFORD        CLOUDY    35  31  86 SE3       29.78S
WAUSAU         CLOUDY    34  30  85 E8        29.80F WCI  27
WIS RAPIDS     LGT RAIN  38  38 100 SE8       29.81F FOG     WCI  32
MARSHFIELD     CLOUDY    36  32  85 E5        29.77F WCI  32
RICE LAKE      CLOUDY    36  30  80 E5        29.76F WCI  32
$$

...NORTHEAST IOWA...


CITY           SKY/WX    TMP DP  RH WIND       PRES   REMARKS
WATERLOO       MOCLDY    35  34  96 E6        29.70S WCI  30
DUBUQUE        CLEAR     43  42  97 SE12      29.73F
DECORAH        PTCLDY    37  37 100 E10       29.70F WCI  30
MASON CITY     PTCLDY    38  34  85 E12       29.68F WCI  30
CHARLES CITY   CLOUDY    37  37 100 E15       29.68F WCI  28
OELWEIN        MOCLDY    39  39 100 E9        29.72R WCI  33
$$

...ELSEWHERE IN IOWA...


CITY           SKY/WX    TMP DP  RH WIND       PRES   REMARKS
DES MOINES     CLOUDY    53  44  71 SE9       29.63F
IOWA CITY      CLOUDY    51  47  86 S10       29.73F
FORT DODGE     CLOUDY    36  30  80 E5        29.64F WCI  32
MARSHALLTOWN   MOCLDY    40  37  89 E8        29.65F WCI  34
CEDAR RAPIDS   CLOUDY    46  44  93 S10       29.69F
$$

...NORTHERN ILLINOIS...


CITY           SKY/WX    TMP DP  RH WIND       PRES   REMARKS
CHICAGO-OHARE  CLOUDY    50  45  83 S16G25    29.85S
CHICAGO-MIDWAY CLOUDY    50  44  80 S16G23    29.87F
MOLINE         PTCLDY    51  47  86 S10       29.76F
ROCKFORD       CLOUDY    49  45  86 S12       29.83F
PEORIA         CLOUDY    52  50  93 S13       29.83F
$$

NOTE: "FAIR" INDICATES FEW OR NO CLOUDS BELOW 12,000 FEET WITH NO
SIGNIFICANT WEATHER AND/OR OBSTRUCTIONS TO VISIBILITY. WIND
SPEEDS ARE IN MILES-PER-HOUR.




USA.gov is the U.S. government's official web portal to all federal, state and local government web resources and services.